CW4629 Weather Reports


time (UTC)temp
C
wind
direction
speed
KPH
gust
KPH
rain 1hr
cm
rain 24hr
cm
rain mn
cm
humidity
%
barometer
mb
20260508181330 30 204 1.6 4.8 0.00 0.00 0.00 13 1015.8
20260508180332 30 198 6.4 8.0 0.00 0.00 0.00 13 1016.0
20260508175331 29 223 0.0 3.2 0.00 0.00 0.00 14 1016.0
20260508174347 29 134 3.2 8.0 0.00 0.00 0.00 15 1016.2
20260508173432 28 135 0.0 1.6 0.00 0.00 0.00 15 1016.4
20260508172530 27 194 4.8 8.0 0.00 0.00 0.00 17 1016.5
20260508172449 27 141 0.0 1.6 0.00 0.00 0.00 16 1016.6
20260508171546 27 180 3.2 4.8 0.00 0.00 0.00 16 1016.5
20260508170631 27 115 1.6 6.4 0.00 0.00 0.00 18 1016.5
20260508165630 26 157 1.6 4.8 0.00 0.00 0.00 18 1016.7
20260508165547 26 154 6.4 9.7 0.00 0.00 0.00 18 1016.7
20260508164531 26 142 1.6 4.8 0.00 0.00 0.00 19 1016.7
20260508163549 26 247 0.0 1.6 0.00 0.00 0.00 19 1016.8
20260508162531 25 202 4.8 8.0 0.00 0.00 0.00 19 1016.9
20260508161546 25 223 1.6 3.2 0.00 0.00 0.00 19 1017.0
20260508160531 24 167 1.6 4.8 0.00 0.00 0.00 20 1017.2
20260508160431 24 159 1.6 6.4 0.00 0.00 0.00 20 1017.0
20260508155431 23 202 1.6 4.8 0.00 0.00 0.00 20 1017.2
20260508154431 23 202 3.2 4.8 0.00 0.00 0.00 21 1017.1
20260508153433 23 157 0.0 0.0 0.00 0.00 0.00 20 1017.1
20260508152530 23 135 0.0 3.2 0.00 0.00 0.00 20 1017.2
20260508151533 24 236 0.0 3.2 0.00 0.00 0.00 20 1017.2
20260508145631 21 270 0.0 0.0 0.00 0.00 0.00 22 1017.2
20260508144631 20 270 0.0 0.0 0.00 0.00 0.00 24 1017.3
20260508142647 19 337 0.0 0.0 0.00 0.00 0.00 30 1017.4
20260508140732 17 337 0.0 0.0 0.00 0.00 0.00 35 1017.4
20260508135730 16 337 0.0 0.0 0.00 0.00 0.00 40 1017.3
20260508134746 15 337 0.0 1.6 0.00 0.00 0.00 39 1017.2
20260508133749 15 22 0.0 0.0 0.00 0.00 0.00 41 1017.2
20260508131732 12 22 0.0 0.0 0.00 0.00 0.00 48 1016.8
20260508130830 11 22 0.0 0.0 0.00 0.00 0.00 47 1016.6
20260508125829 11 22 0.0 0.0 0.00 0.00 0.00 47 1016.4
20260508124831 12 22 0.0 0.0 0.00 0.00 0.00 43 1016.3
20260508123930 12 315 0.0 0.0 0.00 0.00 0.00 44 1016.1
20260508122848 12 22 0.0 0.0 0.00 0.00 0.00 41 1016.1
20260508121030 12 22 0.0 0.0 0.00 0.00 0.00 45 1016.1
20260508114149 13 90 0.0 0.0 0.00 0.00 0.00 37 1016.0
20260508113132 13 90 0.0 0.0 0.00 0.00 0.00 38 1015.9
20260508112230 13 90 0.0 0.0 0.00 0.00 0.00 34 1016.0
20260508111232 13 180 0.0 0.0 0.00 0.00 0.00 38 1015.9
20260508110231 13 180 0.0 0.0 0.00 0.00 0.00 41 1015.9
20260508110146 13 180 0.0 0.0 0.00 0.00 0.00 41 1015.7
20260508105146 13 180 0.0 0.0 0.00 0.00 0.00 38 1015.8
20260508104230 13 180 0.0 0.0 0.00 0.00 0.00 37 1015.9
20260508103232 14 167 0.0 0.0 0.00 0.00 0.00 35 1015.8
20260508102330 15 157 0.0 0.0 0.00 0.00 0.00 34 1015.7
20260508101331 15 157 0.0 0.0 0.00 0.00 0.00 32 1015.5
20260508095331 16 157 0.0 0.0 0.00 0.00 0.00 29 1015.6
20260508094331 16 157 0.0 0.0 0.00 0.00 0.00 28 1015.5
20260508093429 16 45 3.2 6.4 0.00 0.00 0.00 28 1015.4
20260508093329 16 45 3.2 3.2 0.00 0.00 0.00 29 1015.3
20260508092331 16 360 0.0 0.0 0.00 0.00 0.00 31 1015.4
20260508091331 16 22 0.0 0.0 0.00 0.00 0.00 29 1015.4
20260508090330 16 67 3.2 4.8 0.00 0.00 0.00 33 1015.2
20260508085346 16 202 0.0 0.0 0.00 0.00 0.00 33 1015.3
20260508084431 16 157 0.0 0.0 0.00 0.00 0.00 30 1015.4
20260508083529 17 94 0.0 0.0 0.00 0.00 0.00 30 1015.3
20260508083430 16 28 0.0 0.0 0.00 0.00 0.00 30 1015.4
20260508081431 17 360 0.0 0.0 0.00 0.00 0.00 29 1015.3
20260508080447 17 360 0.0 1.6 0.00 0.00 0.00 30 1015.4
20260508075430 17 360 0.0 0.0 0.00 0.00 0.00 31 1015.3
20260508074330 18 360 0.0 0.0 0.00 0.00 0.00 27 1015.3
20260508073331 18 22 0.0 0.0 0.00 0.00 0.00 27 1015.3
20260508072429 18 22 0.0 1.6 0.00 0.00 0.00 26 1015.2
20260508071445 18 22 0.0 0.0 0.00 0.00 0.00 26 1015.2
20260508070448 19 341 1.6 1.6 0.00 0.00 0.00 24 1015.2
20260508064628 20 337 1.6 3.2 0.00 0.00 0.00 22 1015.0
20260508062730 21 161 4.8 6.4 0.00 0.00 0.00 21 1014.7
20260508061747 21 52 1.6 3.2 0.00 0.00 0.00 20 1014.8
20260508055920 21 292 0.0 1.6 0.00 0.00 0.00 19 1014.7
20260508054920 21 292 3.2 3.2 0.00 0.00 0.00 21 1014.7
20260508053936 21 135 3.2 4.8 0.00 0.00 0.00 23 1014.7
20260508052936 21 135 0.0 1.6 0.00 0.00 0.00 21 1014.6
20260508052022 21 67 0.0 0.0 0.00 0.00 0.00 21 1014.6
20260508051021 21 45 0.0 0.0 0.00 0.00 0.00 21 1014.6
20260508050021 21 270 0.0 0.0 0.00 0.00 0.00 20 1014.6
20260508045035 22 270 0.0 0.0 0.00 0.00 0.00 20 1014.6
20260508044937 22 270 0.0 0.0 0.00 0.00 0.00 20 1014.5
20260508043920 22 315 0.0 0.0 0.00 0.00 0.00 20 1014.5
20260508043820 22 315 0.0 0.0 0.00 0.00 0.00 20 1014.4
20260508042837 22 315 1.6 3.2 0.00 0.00 0.00 19 1014.4
20260508041020 22 315 0.0 0.0 0.00 0.00 0.00 20 1014.3
20260508040921 22 315 0.0 1.6 0.00 0.00 0.00 20 1014.4
20260508035921 22 315 0.0 0.0 0.00 0.00 0.00 22 1014.2
20260508034922 22 315 0.0 3.2 0.00 0.00 0.00 22 1013.9
20260508033920 23 337 0.0 0.0 0.00 0.00 0.00 20 1014.0
20260508032919 23 360 0.0 0.0 0.00 0.00 0.00 19 1013.8
20260508031936 24 360 4.8 6.4 0.00 0.00 0.00 18 1013.7
20260508025920 25 39 1.6 4.8 0.00 0.00 0.00 19 1013.6
20260508024937 25 337 0.0 1.6 0.00 0.00 0.00 17 1013.5
20260508024021 26 292 1.6 4.8 0.00 0.00 0.00 15 1013.4
20260508023021 27 153 0.0 0.0 0.00 0.00 0.00 13 1013.2
20260508022019 28 202 0.0 0.0 0.00 0.00 0.00 12 1013.1
20260508021920 28 202 0.0 0.0 0.00 0.00 0.00 12 1013.0
20260508020918 29 202 0.0 0.0 0.00 0.00 0.00 11 1013.1
20260508020018 29 180 0.0 0.0 0.00 0.00 0.00 11 1013.1
20260508015019 29 199 4.8 9.7 0.00 0.00 0.00 10 1013.1
20260508014034 29 215 6.4 9.7 0.00 0.00 0.00 10 1013.1
20260508013119 28 213 8.0 12.9 0.00 0.00 0.00 10 1013.2
20260508012138 28 199 8.0 11.3 0.00 0.00 0.00 10 1013.1
20260508011121 29 201 4.8 9.7 0.00 0.00 0.00 10 1013.2
20260508010121 29 195 4.8 9.7 0.00 0.00 0.00 10 1013.3
20260508005135 29 197 9.7 12.9 0.00 0.00 0.00 10 1013.3
20260508004220 30 209 9.7 14.5 0.00 0.00 0.00 10 1013.4
20260508003221 30 243 6.4 9.7 0.00 0.00 0.00 10 1013.3
20260508002221 30 206 9.7 16.1 0.00 0.00 0.00 10 1013.3
20260508001221 30 258 12.9 22.5 0.00 0.00 0.00 10 1013.3
20260508000219 31 234 11.3 16.1 0.00 0.00 0.00 10 1013.5
20260508000122 31 239 11.3 19.3 0.00 0.00 0.00 10 1013.4
20260507235135 31 242 8.0 12.9 0.00 0.00 0.00 10 1013.5
20260507235035 31 242 12.9 17.7 0.00 0.00 0.00 10 1013.5
20260507234036 31 285 16.1 22.5 0.00 0.00 0.00 9 1013.4
20260507232119 31 226 4.8 9.7 0.00 0.00 0.00 10 1013.6
20260507232020 31 247 8.0 14.5 0.00 0.00 0.00 10 1013.6
20260507231018 30 280 9.7 14.5 0.00 0.00 0.00 10 1013.7
20260507225020 31 282 11.3 20.9 0.00 0.00 0.00 10 1013.9
20260507224035 32 268 12.9 16.1 0.00 0.00 0.00 9 1013.8
20260507223018 32 137 6.4 11.3 0.00 0.00 0.00 10 1014.1
20260507220039 32 151 4.8 8.0 0.00 0.00 0.00 8 1014.7
20260507215118 32 270 0.0 3.2 0.00 0.00 0.00 10 1014.9
20260507212234 31 146 0.0 3.2 0.00 0.00 0.00 10 1015.7
20260507211220 30 15 0.0 3.2 0.00 0.00 0.00 10 1016.0
20260507210234 30 182 3.2 11.3 0.00 0.00 0.00 11 1016.1
20260507205318 31 126 4.8 6.4 0.00 0.00 0.00 10 1016.3
20260507204334 31 270 1.6 4.8 0.00 0.00 0.00 9 1016.5
20260507203420 30 146 4.8 8.0 0.00 0.00 0.00 10 1016.7
20260507202435 29 247 0.0 4.8 0.00 0.00 0.00 11 1016.9
20260507201521 29 113 8.0 12.9 0.00 0.00 0.00 10 1017.1
20260507200534 29 154 6.4 8.0 0.00 0.00 0.00 12 1017.2
20260507194635 28 114 1.6 6.4 0.00 0.00 0.00 12 1017.7
20260507193618 28 45 4.8 8.0 0.00 0.00 0.00 12 1018.0
20260507192634 28 35 3.2 6.4 0.00 0.00 0.00 12 1018.2
20260507191717 27 50 4.8 8.0 0.00 0.00 0.00 11 1018.4
20260507190734 28 156 0.0 1.6 0.00 0.00 0.00 12 1018.6
20260507185819 27 180 4.8 8.0 0.00 0.00 0.00 12 1018.9
20260507183918 27 73 4.8 11.3 0.00 0.00 0.00 12 1019.2
20260507182921 26 16 4.8 9.7 0.00 0.00 0.00 13 1019.4